EN

Hourly Weather Otyk

Today, 2 March, Tuesday

Time Temperature Precipitation Wind Pressure Humidity
00:00 +1°C° 0 mm 2 mps 758 mmHg 93%
01:00 -1°C° 0 mm 2 mps 758 mmHg 95%
02:00 -1°C° 0 mm 2 mps 758 mmHg 95%
03:00 -1°C° 0 mm 3 mps 758 mmHg 95%
04:00 -1°C° 0 mm 3 mps 757 mmHg 95%
05:00 -1°C° 0 mm 3 mps 757 mmHg 95%
06:00 -1°C° 0 mm 3 mps 757 mmHg 94%
07:00 0°C° 0 mm 3 mps 757 mmHg 94%
08:00 +1°C° 0 mm 3 mps 757 mmHg 87%
09:00 +3°C° 0 mm 4 mps 757 mmHg 80%
10:00 +4°C° 0 mm 4 mps 757 mmHg 73%
11:00 +6°C° 0 mm 4 mps 757 mmHg 69%
12:00 +7°C° 0 mm 4 mps 757 mmHg 65%
13:00 +8°C° 0 mm 4 mps 757 mmHg 62%
14:00 +8°C° 0 mm 4 mps 756 mmHg 62%
15:00 +8°C° 0 mm 4 mps 756 mmHg 62%
16:00 +9°C° 0 mm 3 mps 756 mmHg 62%
17:00 +8°C° 0 mm 3 mps 756 mmHg 69%
18:00 +7°C° 0 mm 3 mps 756 mmHg 75%
19:00 +5°C° 0 mm 2 mps 756 mmHg 81%
20:00 +5°C° 0 mm 2 mps 756 mmHg 83%
21:00 +4°C° 0 mm 2 mps 757 mmHg 84%
22:00 +5°C° 0 mm 1 mps 757 mmHg 86%
23:00 +4°C° 0 mm 1 mps 757 mmHg 86%

Tomorrow, 3 March, Wednesday

Time Temperature Precipitation Wind Pressure Humidity
00:00 +3°C° 0 mm 0 mps 757 mmHg 86%
01:00 +2°C° 0 mm 0 mps 757 mmHg 86%
02:00 +2°C° 0 mm 0 mps 756 mmHg 86%
03:00 +3°C° 0 mm 1 mps 756 mmHg 86%
04:00 +3°C° 0 mm 1 mps 755 mmHg 86%
05:00 +3°C° 0 mm 1 mps 755 mmHg 86%
06:00 +3°C° 0 mm 1 mps 755 mmHg 86%
07:00 +3°C° 0 mm 1 mps 755 mmHg 86%
08:00 +4°C° 0 mm 1 mps 755 mmHg 79%
09:00 +6°C° 0 mm 1 mps 754 mmHg 71%
10:00 +7°C° 0 mm 2 mps 754 mmHg 64%
11:00 +8°C° 0 mm 2 mps 754 mmHg 59%
12:00 +9°C° 0 mm 2 mps 753 mmHg 55%
13:00 +12°C° 0 mm 2 mps 753 mmHg 50%
14:00 +12°C° 0 mm 2 mps 752 mmHg 51%
15:00 +12°C° 0 mm 1 mps 751 mmHg 53%
16:00 +12°C° 0 mm 1 mps 750 mmHg 54%
17:00 +10°C° 0 mm 2 mps 750 mmHg 58%
18:00 +9°C° 0 mm 2 mps 750 mmHg 61%
19:00 +8°C° 0 mm 2 mps 750 mmHg 65%
20:00 +7°C° 0 mm 3 mps 749 mmHg 68%
21:00 +5°C° 0 mm 3 mps 749 mmHg 70%
22:00 +5°C° 0 mm 3 mps 748 mmHg 73%
23:00 +4°C° 0 mm 4 mps 748 mmHg 76%

Day after tomorrow, 4 March, Thursday

Time Temperature Precipitation Wind Pressure Humidity
00:00 +4°C° 0 mm 4 mps 747 mmHg 79%
01:00 +4°C° 0 mm 4 mps 747 mmHg 82%
02:00 +3°C° 0 mm 4 mps 746 mmHg 83%
03:00 +3°C° 0 mm 4 mps 746 mmHg 84%
04:00 +3°C° 0 mm 4 mps 745 mmHg 84%
05:00 +3°C° 0 mm 4 mps 745 mmHg 86%
06:00 +3°C° 0 mm 4 mps 745 mmHg 88%
07:00 +3°C° 0 mm 4 mps 744 mmHg 89%
08:00 +3°C° 0 mm 5 mps 744 mmHg 86%
09:00 +4°C° 0 mm 6 mps 744 mmHg 83%
10:00 +5°C° 0 mm 6 mps 743 mmHg 79%
11:00 +7°C° 0 mm 6 mps 743 mmHg 74%
12:00 +8°C° 0 mm 6 mps 743 mmHg 69%
13:00 +9°C° 0 mm 6 mps 743 mmHg 64%
14:00 +9°C° 0 mm 6 mps 742 mmHg 63%
15:00 +8°C° 0 mm 6 mps 742 mmHg 62%
16:00 +8°C° 0 mm 5 mps 742 mmHg 60%
17:00 +7°C° 0 mm 5 mps 742 mmHg 66%
18:00 +5°C° 0 mm 5 mps 742 mmHg 71%
19:00 +3°C° 0 mm 4 mps 742 mmHg 76%
20:00 +3°C° 0.2 mm 4 mps 742 mmHg 79%
21:00 +2°C° 0.2 mm 3 mps 742 mmHg 82%
22:00 +1°C° 0.2 mm 3 mps 742 mmHg 85%
23:00 +1°C° 0.1 mm 3 mps 743 mmHg 85%

5 March, Friday

Time Temperature Precipitation Wind Pressure Humidity
00:00 -1°C° 0.1 mm 4 mps 743 mmHg 85%
01:00 -1°C° 0.1 mm 4 mps 743 mmHg 85%
02:00 -2°C° 0 mm 4 mps 743 mmHg 81%
03:00 -2°C° 0 mm 4 mps 743 mmHg 77%
04:00 -2°C° 0 mm 4 mps 744 mmHg 73%
05:00 -3°C° 0 mm 4 mps 744 mmHg 73%
06:00 -3°C° 0 mm 4 mps 744 mmHg 73%
07:00 -4°C° 0 mm 5 mps 745 mmHg 73%
08:00 -2°C° 0 mm 5 mps 745 mmHg 68%
09:00 -2°C° 0 mm 5 mps 746 mmHg 63%
10:00 -1°C° 0 mm 5 mps 746 mmHg 58%
11:00 -1°C° 0 mm 5 mps 746 mmHg 54%
12:00 0°C° 0 mm 5 mps 747 mmHg 49%
13:00 +1°C° 0 mm 5 mps 747 mmHg 45%
14:00 +1°C° 0 mm 4 mps 747 mmHg 45%
15:00 +1°C° 0 mm 4 mps 747 mmHg 44%
16:00 +1°C° 0 mm 4 mps 747 mmHg 44%
17:00 +1°C° 0.1 mm 3 mps 748 mmHg 49%
18:00 0°C° 0.1 mm 3 mps 749 mmHg 53%
19:00 -1°C° 0.1 mm 2 mps 749 mmHg 58%
20:00 -1°C° 0 mm 3 mps 750 mmHg 60%
21:00 -1°C° 0 mm 3 mps 750 mmHg 62%
22:00 -2°C° 0 mm 3 mps 751 mmHg 64%
23:00 -3°C° 0 mm 4 mps 751 mmHg 66%

6 March, Saturday

Time Temperature Precipitation Wind Pressure Humidity
00:00 -3°C° 0 mm 4 mps 752 mmHg 68%
01:00 -3°C° 0 mm 4 mps 752 mmHg 70%
02:00 -4°C° 0 mm 4 mps 752 mmHg 67%
03:00 -4°C° 0 mm 4 mps 753 mmHg 64%
04:00 -4°C° 0 mm 4 mps 753 mmHg 61%
05:00 -4°C° 0 mm 4 mps 753 mmHg 59%
06:00 -4°C° 0 mm 4 mps 754 mmHg 58%
07:00 -4°C° 0 mm 3 mps 754 mmHg 56%
08:00 -3°C° 0 mm 4 mps 754 mmHg 52%
09:00 -2°C° 0 mm 4 mps 755 mmHg 47%
10:00 -1°C° 0 mm 4 mps 755 mmHg 43%
11:00 -1°C° 0 mm 4 mps 755 mmHg 42%
12:00 0°C° 0 mm 4 mps 755 mmHg 42%
13:00 0°C° 0 mm 4 mps 755 mmHg 42%
14:00 0°C° 0 mm 4 mps 754 mmHg 43%
15:00 0°C° 0 mm 4 mps 754 mmHg 43%
16:00 0°C° 0 mm 5 mps 754 mmHg 44%
17:00 -1°C° 0 mm 4 mps 754 mmHg 48%
18:00 -2°C° 0 mm 4 mps 754 mmHg 51%
19:00 -2°C° 0 mm 3 mps 754 mmHg 55%
20:00 -3°C° 0 mm 4 mps 753 mmHg 53%
21:00 -3°C° 0 mm 4 mps 753 mmHg 52%
22:00 -4°C° 0 mm 5 mps 753 mmHg 50%
23:00 -4°C° 0 mm 5 mps 753 mmHg 52%

7 March, Sunday

Time Temperature Precipitation Wind Pressure Humidity
00:00 -4°C° 0 mm 6 mps 752 mmHg 55%
01:00 -4°C° 0 mm 6 mps 752 mmHg 57%
02:00 -3°C° 0 mm 6 mps 751 mmHg 61%
03:00 -3°C° 0 mm 7 mps 751 mmHg 65%
04:00 -3°C° 0 mm 7 mps 750 mmHg 70%
05:00 -3°C° 0 mm 7 mps 750 mmHg 71%
06:00 -4°C° 0 mm 8 mps 750 mmHg 73%
07:00 -4°C° 0 mm 8 mps 749 mmHg 74%
08:00 -2°C° 0 mm 8 mps 749 mmHg 72%
09:00 -3°C° 0 mm 9 mps 749 mmHg 70%
10:00 -1°C° 0 mm 9 mps 748 mmHg 69%
11:00 -1°C° 0 mm 9 mps 748 mmHg 66%
12:00 -1°C° 0 mm 9 mps 747 mmHg 63%
13:00 0°C° 0 mm 9 mps 747 mmHg 61%
14:00 0°C° 0 mm 8 mps 746 mmHg 61%
15:00 0°C° 0 mm 8 mps 746 mmHg 61%
16:00 0°C° 0 mm 8 mps 745 mmHg 61%
17:00 -1°C° 0 mm 7 mps 745 mmHg 67%
18:00 -2°C° 0 mm 6 mps 744 mmHg 73%
19:00 -3°C° 0 mm 6 mps 744 mmHg 79%
20:00 -3°C° 0.1 mm 6 mps 744 mmHg 83%
21:00 -3°C° 0.1 mm 7 mps 744 mmHg 87%
22:00 -3°C° 0.1 mm 7 mps 744 mmHg 91%
23:00 -3°C° 0.4 mm 7 mps 744 mmHg 92%
Show more

We Need Your Consent

Meteoprog and our Service Providers may store and access personal data such as cookies, device identifiers or other similar technologies on your device and process such data to personalise content and ads, as well as provide social media features and to analyse the traffic.

  • Store and/or access information on your device

    Cookies, device identifiers or other information can be stored or accessed on your device for the purposes indicated above.

  • Personalised ads and content, ad and content measurement, audience insights, and products development

    Ads and content can be personalised based on a profile. More data can be added to better personalise ads and content. Ad and content performance can be measured. Insights about the audience who saw the ads and content can be derived. Such data can be used to develop or improve user’s experience, systems and software.

By clicking ‘I Agree’ you will allow the use of indicated cookies, device identifiers, web beacons or other similar technologies. Your settings can be changed in the browser on your device.

For certain purposes, legitimate interests may be relied on, rather than consent. You can read more about this in our Privacy and Cookie Policy.